Location: Unspecified
(0.0000°N, 0.0000°E)
Time: 08:42:24
(UTC+00:00)

A-11 Canister half - Pass Details

Date: 15 June 2024
Orbit: 1515 x 1684 km, 47.2° (Epoch: 23 July)

Event Time Altitude Azimuth Distance (km) Brightness Sun altitude
Rises 02:27:34 0° 349° (N) 4,697 11.8 -47.4°
Reaches altitude 10° 02:32:11 10° 9° (N) 3,692 11.3 -46.4°
Maximum altitude 02:37:42 17° 46° (NE) 3,152 11.1 -45.3°
Drops below altitude 10° 02:43:08 10° 83° (E) 3,668 11.5 -44.2°
Sets 02:47:38 0° 102° (ESE) 4,654 12.0 -43.2°
